Weather History for Stanley, ND

Change the Weather History Date:

Saturday, October 6, 2012

  Actual Average (KMOT) Record (KMOT)
Temperature  
Mean Temperature 32 °F 49 °F  
Max Temperature 46 °F 60 °F 90 °F (1920)
Min Temperature 17 °F 38 °F 17 °F (1954)
Degree Days  
Heating Degree Days 34 16  
Month to date heating degree days 90  
Since 1 July heating degree days 410  
Cooling Degree Days 0 0  
Month to date cooling degree days 0  
Year to date cooling degree days 444  
Moisture  
Dew Point 20 °F    
Average Humidity 67    
Maximum Humidity 93    
Minimum Humidity 34    
Precipitation  
Precipitation 0.00 in 0.05 in 1.61 in (1994)
Month to date precipitation 0.27  
Year to date precipitation 15.17  
Sea Level Pressure  
Sea Level Pressure 30.29 in    
Wind  
Wind Speed 7 mph (West)    
Max Wind Speed 17 mph    
Max Gust Speed 23 mph    
Visibility 10 miles    
Events      
T = Trace of Precipitation, MM = Missing Value Source: NWS Daily Summary

Daily Weather History Graph

Daily Weather History Graph

Search for Another Location

Airport:

Trip Planner

Search our weather history database for the weather conditions in past years. The results will help you decide how hot, cold, wet, or windy it might be!

Date:

Astronomy

Oct. 06, 2012 Rise Set
Actual Time 7:56 AM CDT 7:17 PM CDT
Civil Twilight 7:25 AM CDT 7:48 PM CDT
Nautical Twilight 6:49 AM CDT 8:24 PM CDT
Astronomical Twilight 6:12 AM CDT 9:01 PM CDT
Moon 11:13 PM CDT (10/6) 2:14 PM CDT (10/6)
Length of Visible Light 12h 22m
Length of Day
11h 20m
Waning Gibbous, 65% of the Moon is Illuminated
Oct 6
Waning Gibbous
Oct 8
Last Quarter
Oct 15
New
Oct 21
First Quarter
Oct 29
Full

Hourly Weather History & Observations

Time (CDT) Temp. Windchill Dew Point Humidity Pressure Visibility Wind Dir Wind Speed Gust Speed Precip Events Conditions
12:15 AM 26.6 °F 20.0 °F 19.4 °F 74% 30.41 in 10.0 mi NNW 5.8 mph - N/A   Overcast
12:35 AM 26.6 °F 20.0 °F 19.4 °F 74% 30.41 in 10.0 mi North 5.8 mph - N/A   Mostly Cloudy
12:55 AM 26.6 °F 20.0 °F 19.4 °F 74% 30.40 in 10.0 mi NNW 5.8 mph - N/A   Scattered Clouds
1:15 AM 26.6 °F 20.0 °F 19.4 °F 74% 30.40 in 10.0 mi NNW 5.8 mph - N/A   Mostly Cloudy
1:35 AM 26.6 °F 21.2 °F 19.4 °F 74% 30.40 in 10.0 mi NNW 4.6 mph - N/A   Mostly Cloudy
1:55 AM 24.8 °F 20.5 °F 19.4 °F 80% 30.40 in 10.0 mi NW 3.5 mph - N/A   Mostly Cloudy
2:15 AM 24.8 °F 20.5 °F 19.4 °F 80% 30.40 in 10.0 mi NW 3.5 mph - N/A   Scattered Clouds
2:35 AM 23.0 °F 14.7 °F 19.4 °F 86% 30.40 in 10.0 mi NW 6.9 mph - N/A   Scattered Clouds
2:55 AM 23.0 °F 15.8 °F 17.6 °F 80% 30.40 in 10.0 mi NNW 5.8 mph - N/A   Partly Cloudy
3:15 AM 23.0 °F 15.8 °F 17.6 °F 80% 30.40 in 10.0 mi NW 5.8 mph - N/A   Clear
3:35 AM 21.2 °F 12.6 °F 17.6 °F 86% 30.39 in 10.0 mi NW 6.9 mph - N/A   Clear
3:55 AM 21.2 °F 12.6 °F 17.6 °F 86% 30.39 in 10.0 mi WNW 6.9 mph - N/A   Clear
4:15 AM 21.2 °F 16.4 °F 17.6 °F 86% 30.39 in 10.0 mi WNW 3.5 mph - N/A   Clear
4:35 AM 19.4 °F 14.3 °F 17.6 °F 93% 30.38 in 10.0 mi WNW 3.5 mph - N/A   Clear
4:55 AM 21.2 °F 11.7 °F 17.6 °F 86% 30.39 in 10.0 mi NW 8.1 mph - N/A   Clear
5:15 AM 19.4 °F 9.5 °F 17.6 °F 93% 30.38 in 10.0 mi WNW 8.1 mph - N/A   Clear
5:35 AM 19.4 °F 10.4 °F 17.6 °F 93% 30.38 in 10.0 mi WNW 6.9 mph - N/A   Clear
5:55 AM 19.4 °F 10.4 °F 17.6 °F 93% 30.38 in 10.0 mi WNW 6.9 mph - N/A   Clear
6:15 AM 19.4 °F 10.4 °F 17.6 °F 93% 30.38 in 10.0 mi WNW 6.9 mph - N/A   Clear
6:35 AM 19.4 °F 10.4 °F 17.6 °F 93% 30.38 in 10.0 mi WNW 6.9 mph - N/A   Clear
6:55 AM 19.4 °F 10.4 °F 17.6 °F 93% 30.38 in 10.0 mi WNW 6.9 mph - N/A   Clear
7:15 AM 17.6 °F 9.3 °F 15.8 °F 93% 30.38 in 10.0 mi West 5.8 mph - N/A   Clear
7:35 AM 17.6 °F 9.3 °F 15.8 °F 93% 30.37 in 10.0 mi West 5.8 mph - N/A   Clear
7:55 AM 17.6 °F 12.3 °F 15.8 °F 93% 30.37 in 10.0 mi WNW 3.5 mph - N/A   Clear
8:15 AM 17.6 °F 12.3 °F 15.8 °F 93% 30.38 in 10.0 mi WNW 3.5 mph - N/A   Clear
8:35 AM 19.4 °F 12.8 °F 17.6 °F 93% 30.38 in 10.0 mi WNW 4.6 mph - N/A   Clear
9:15 AM 24.8 °F 17.9 °F 21.2 °F 86% 30.38 in 10.0 mi West 5.8 mph - N/A   Clear
9:35 AM 26.6 °F 21.2 °F 21.2 °F 80% 30.38 in 10.0 mi West 4.6 mph - N/A   Clear
9:55 AM 28.4 °F 19.1 °F 23.0 °F 80% 30.37 in 10.0 mi West 10.4 mph - N/A   Clear
10:15 AM 32.0 °F 25.6 °F 21.2 °F 64% 30.37 in 10.0 mi West 6.9 mph - N/A   Clear
10:35 AM 32.0 °F 24.2 °F 21.2 °F 64% 30.37 in 10.0 mi West 9.2 mph - N/A   Clear
10:55 AM 33.8 °F 27.0 °F 21.2 °F 60% 30.36 in 10.0 mi West 8.1 mph - N/A   Clear
11:15 AM 35.6 °F 28.0 °F 19.4 °F 52% 30.35 in 10.0 mi West 10.4 mph - N/A   Clear
11:35 AM 35.6 °F 28.6 °F 19.4 °F 52% 30.35 in 10.0 mi West 9.2 mph - N/A   Clear
11:55 AM 37.4 °F 29.8 °F 19.4 °F 48% 30.34 in 10.0 mi West 11.5 mph - N/A   Clear
12:15 PM 37.4 °F 29.8 °F 19.4 °F 48% 30.33 in 10.0 mi West 11.5 mph 17.3 mph N/A   Clear
12:35 PM 39.2 °F 31.6 °F 17.6 °F 42% 30.33 in 10.0 mi West 12.7 mph - N/A   Clear
12:55 PM 41.0 °F 33.5 °F 19.4 °F 42% 30.32 in 10.0 mi West 13.8 mph 17.3 mph N/A   Clear
1:15 PM 41.0 °F 33.9 °F 19.4 °F 42% 30.31 in 10.0 mi West 12.7 mph 21.9 mph N/A   Clear
1:35 PM 41.0 °F 33.9 °F 19.4 °F 42% 30.30 in 10.0 mi West 12.7 mph 17.3 mph N/A   Clear
1:55 PM 42.8 °F 37.5 °F 19.4 °F 39% 30.29 in 10.0 mi West 9.2 mph 18.4 mph N/A   Clear
2:15 PM 44.6 °F 38.8 °F 19.4 °F 37% 30.28 in 10.0 mi West 11.5 mph 17.3 mph N/A   Clear
2:35 PM 44.6 °F 38.4 °F 21.2 °F 39% 30.27 in 10.0 mi WNW 12.7 mph 19.6 mph N/A   Clear
2:55 PM 44.6 °F 38.8 °F 19.4 °F 37% 30.26 in 10.0 mi West 11.5 mph 18.4 mph N/A   Clear
3:15 PM 44.6 °F 38.8 °F 19.4 °F 37% 30.25 in 10.0 mi WNW 11.5 mph 18.4 mph N/A   Clear
3:35 PM 44.6 °F 38.1 °F 19.4 °F 37% 30.24 in 10.0 mi West 13.8 mph 18.4 mph N/A   Clear
3:55 PM 46.4 °F 39.8 °F 19.4 °F 34% 30.23 in 10.0 mi West 16.1 mph 23.0 mph N/A   Clear
4:15 PM 46.4 °F 40.7 °F 19.4 °F 34% 30.22 in 10.0 mi West 12.7 mph 23.0 mph N/A   Clear
4:35 PM 46.4 °F 41.5 °F 19.4 °F 34% 30.21 in 10.0 mi West 10.4 mph 23.0 mph N/A   Clear
4:55 PM 46.4 °F 39.5 °F 19.4 °F 34% 30.20 in 10.0 mi West 17.3 mph 23.0 mph N/A   Clear
5:15 PM 46.4 °F 40.4 °F 19.4 °F 34% 30.19 in 10.0 mi West 13.8 mph 21.9 mph N/A   Clear
5:35 PM 46.4 °F 40.4 °F 19.4 °F 34% 30.18 in 10.0 mi West 13.8 mph 21.9 mph N/A   Clear
6:15 PM 44.6 °F 38.4 °F 23.0 °F 43% 30.16 in 10.0 mi WSW 12.7 mph 18.4 mph N/A   Clear
6:35 PM 44.6 °F 38.1 °F 23.0 °F 43% 30.16 in 10.0 mi WSW 13.8 mph - N/A   Clear
6:55 PM 42.8 °F 36.6 °F 23.0 °F 46% 30.16 in 10.0 mi WSW 11.5 mph - N/A   Clear
7:15 PM 41.0 °F 35.2 °F 23.0 °F 49% 30.16 in 10.0 mi WSW 9.2 mph - N/A   Clear
7:35 PM 39.2 °F 33.6 °F 23.0 °F 52% 30.15 in 10.0 mi WSW 8.1 mph - N/A   Clear
7:55 PM 35.6 °F 30.7 °F 23.0 °F 60% 30.15 in 10.0 mi WSW 5.8 mph - N/A   Clear
8:15 PM 35.6 °F 30.7 °F 23.0 °F 60% 30.14 in 10.0 mi WSW 5.8 mph - N/A   Clear
8:35 PM 32.0 °F 25.6 °F 23.0 °F 69% 30.14 in 10.0 mi WSW 6.9 mph - N/A   Partly Cloudy
8:55 PM 32.0 °F 24.8 °F 23.0 °F 69% 30.13 in 10.0 mi WSW 8.1 mph - N/A   Clear
9:15 PM 28.4 °F 22.2 °F 23.0 °F 80% 30.12 in 10.0 mi WSW 5.8 mph - N/A   Clear
9:35 PM 30.2 °F 26.7 °F 23.0 °F 75% 30.11 in 10.0 mi SSW 3.5 mph - N/A   Clear
9:55 PM 30.2 °F 24.3 °F 24.8 °F 80% 30.10 in 10.0 mi SSW 5.8 mph - N/A   Scattered Clouds
10:15 PM 30.2 °F 24.3 °F 24.8 °F 80% 30.10 in 10.0 mi SSW 5.8 mph - N/A   Scattered Clouds
10:35 PM 30.2 °F 23.4 °F 24.8 °F 80% 30.10 in 10.0 mi SSW 6.9 mph - N/A   Clear
10:55 PM 30.2 °F 25.4 °F 24.8 °F 80% 30.09 in 10.0 mi SSW 4.6 mph - N/A   Clear
11:35 PM 28.4 °F 23.3 °F 24.8 °F 86% 30.07 in 10.0 mi SSW 4.6 mph - N/A   Clear
11:55 PM 28.4 °F 23.3 °F 24.8 °F 86% 30.07 in 10.0 mi SSW 4.6 mph - N/A   Mostly Cloudy